Home > Time Zones > World Clock > Weather > Iran > Ahvaz > Past weeks

Flag for Iran Weather past 2 weeks in Ahvaz, Iran

Now
97 °F

Sunny.


Feels Like: 99 °F
Forecast: 79 / 104 °F
Wind: 5 mph from Southwest

Location: Ahwaz

Current Time: Oct 2, 2014 at 6:33:27 PM

Latest Report: Oct 2, 2014 at 5:55 PM


Visibility: 10 mi

Pressure: 29.83 "Hg

Humidity: 34%

Dew point: 64 °F

Location of AhvazLocation

Historic Weather in Ahvaz — Graph

°F

Ahvaz temperature yesterday

Maximum temperature yesterday: 106 °F (at 2:30 PM)
Minimum temperature yesterday: 75 °F (at 5:30 AM)
Average temperature yesterday: 91 °F

Past Weeks' High & Low Weather Summary

 TemperatureHumidityPressure
High111 °F (Sep 21, 4:30 PM)84% (Oct 2, 3:30 AM)29.89 "Hg (Oct 2, 3:30 AM)
Low70 °F (Sep 21, 7:30 AM)10% (Sep 20, 4:00 PM)29.59 "Hg (Sep 17, 7:00 PM)
Average92 °F32%29.73 "Hg
* Reported Sep 17 7:00 PM — Oct 2 5:30 PM, Ahvaz, Weather by CustomWeather, © 2014

Note: Actual official high and low records may vary slightly from our data, if they occured in-between our weather recording intervals... More about our weather records

Advertising

Ahvaz weather history for previous 24 hours

 ConditionsComfort  
Time TempWeatherWind HumidityBarometerVisibility
5:30 PM
Oct 2
99 °FSunny.5 mph33%29.80 "Hg10 mi
4:55 PM100 °FSunny.5 mph31%29.80 "Hg10 mi
4:30 PM100 °FPassing clouds.7 mph31%29.80 "HgN/A
3:55 PM102 °FScattered clouds.7 mph31%29.80 "HgN/A
3:30 PM102 °FScattered clouds.7 mph31%29.80 "HgN/A
2:55 PM100 °FSunny.7 mph24%29.80 "Hg10 mi
2:30 PM99 °FScattered clouds.5 mph35%29.80 "Hg5 mi
2:00 PM99 °FScattered clouds.5 mph37%29.83 "Hg4 mi
1:30 PM99 °FScattered clouds.5 mph37%29.83 "Hg4 mi
1:00 PM100 °FScattered clouds.5 mph33%29.86 "Hg4 mi
12:30 PM99 °FSunny.No wind37%29.86 "Hg4 mi
12:00 PM97 °FSunny.No wind47%29.89 "Hg3 mi
11:30 AM95 °FSunny.5 mph50%29.89 "Hg2 mi
11:00 AM95 °FSunny.5 mph53%29.89 "Hg2 mi
10:30 AM93 °FSunny.7 mph56%29.89 "Hg2 mi
10:00 AM91 °FSunny.5 mph67%29.89 "Hg2 mi
9:30 AM90 °FSunny.5 mph71%29.89 "Hg1 mi
9:00 AM88 °FSunny.No wind75%29.89 "Hg1 mi
8:30 AM84 °FFog.5 mph84%29.89 "Hg1 mi
8:00 AM84 °FFog.5 mph79%29.86 "Hg2 mi
7:30 AM81 °FSunny.No wind79%29.86 "Hg2 mi
7:00 AM82 °FFog.5 mph84%29.83 "Hg2 mi
6:30 AM81 °FFog.7 mph84%29.83 "Hg2 mi
5:30 AM81 °FFog.5 mph84%29.83 "Hg3 mi
4:30 AM81 °FFog.5 mph84%29.80 "Hg3 mi
3:30 AM81 °FClear.2 mph84%29.80 "Hg4 mi
2:30 AM82 °FClear.5 mph74%29.80 "Hg4 mi
1:30 AM82 °FClear.5 mph66%29.80 "Hg4 mi
12:30 AM84 °FClear.7 mph62%29.80 "Hg4 mi
12:00 AM84 °FClear.7 mph55%29.80 "Hg4 mi
11:30 PM
Oct 1
86 °FClear.7 mph52%29.80 "Hg4 mi
11:00 PM86 °FClear.7 mph52%29.80 "Hg4 mi
10:30 PM86 °FClear.5 mph52%29.80 "Hg10 mi
9:55 PM88 °FClear.7 mph38%29.80 "Hg10 mi
9:30 PM86 °FClear.No wind46%29.80 "Hg10 mi
8:30 PM88 °FClear.No wind43%29.80 "Hg10 mi
7:55 PM90 °FClear.No wind38%29.77 "Hg10 mi
7:30 PM91 °FClear.No wind36%29.77 "Hg10 mi
6:55 PM93 °FClear.No wind32%29.77 "Hg10 mi
6:30 PM93 °FSunny.No wind34%29.77 "Hg10 mi
Weather by CustomWeather, © 2014

See weather overviewHow to use our weather pages